Location: *
(50.6089°N, 2.2719°E)
Time: 01:58:46
(UTC+00:00)

STARLINK-41 - Pass Details

Date: 18 October 2019
Orbit: 549 x 551 km, 53.0° (Epoch: 18 November)

Event Time Altitude Azimuth Distance (km) Brightness Sun altitude
Rises 19:01:44 0° 272° (W) 2,717 8.7 -21.0°
Reaches altitude 10° 19:04:00 10° 276° (W) 1,824 7.4 -21.4°
Maximum altitude 19:08:06 61° 358° (N) 628 3.8 -22.0°
Enters shadow 19:08:29 58° 27° (NNE) 648 3.8 -22.1°
